Location: Bilsen
(53.7722°N, 9.8765°E)
Time: 09:46:33
(UTC+00:00)

ADEOS II - Pass Details

Date: 18 February 2020
Orbit: 799 x 801 km, 98.5° (Epoch: 09 April)

Event Time Altitude Azimuth Distance (km) Brightness Sun altitude
Rises 03:09:38 0° 11° (N) 3,327 5.7 -30.5°
Reaches altitude 10° 03:12:09 10° 3° (N) 2,392 4.8 -30.1°
Enters shadow 03:14:21 23° 347° (NNW) 1,677 3.8 -29.8°
